Regional Weather Roundup
Issued by NWS Newport/Morehead, NC

Current Version | Previous Version | Text Only | Print | Product List | Glossary On
Versions: 1 2 3 4 5 6 7 8 9 10 11 12 13 14 15 16 17 18 19 20 21 22 23 24 25 26 27 28 29 30 31 32 33 34 35 36 37 38 39 40 41 42 43 44 45 46 47 48 49 50
000 ASUS42 KMHX 092012 RWRMHX WEATHER ROUNDUP FOR EASTERN NORTH CAROLINA NATIONAL WEATHER SERVICE NEWPORT/MOREHEAD CITY NC 300 PM EST FRI DEC 09 2016 NOTE: "FAIR" INDICATES FEW OR NO CLOUDS BELOW 12,000 FEET WITH NO SIGNIFICANT WEATHER AND/OR OBSTRUCTIONS TO VISIBILITY NCZ015>017-031-032-045>047-102-103-092100- NORTH COAST CITY SKY/WX TMP DP RH WIND PRES REMARKS EDENTON SUNNY 43 17 35 NW12 30.35R ELIZABETH CITY SUNNY 42 17 36 W12 30.33R KITTY HAWK CLEAR 40 23 49 NW5 30.31S MANTEO MOSUNNY 41 22 46 N9 30.33S $$ NCZ045>047-081-094-103-104-092100- CENTRAL COAST CITY SKY/WX TMP DP RH WIND PRES REMARKS FRISCO SUNNY 43 23 45 NW9 30.32S $$ NCZ095-097-098-100-101-092100- SOUTHERN COAST CITY SKY/WX TMP DP RH WIND PRES REMARKS BEAUFORT SUNNY 45 22 40 N13 30.33S CEDAR ISLAND NOT AVBL JACKSONVILLE SUNNY 44 19 36 NW10 30.34S PINEY ISLAND CLEAR N/A N/A N/A NW12 30.33R WILMINGTON SUNNY 45 20 36 NW9 30.35S $$ NCZ011>013-027>030-043-044-078>080-089-090>093-098-092100- COASTAL PLAIN CITY SKY/WX TMP DP RH WIND PRES REMARKS AHOSKIE SUNNY 40 14 35 NW5 30.37R CLINTON SUNNY 43 20 41 N5 30.37S ELIZABETHTOWN SUNNY 44 20 38 W10 30.36R GOLDSBORO SUNNY 42 16 34 NW12 30.34S GREENVILLE SUNNY 41 18 38 NW6 30.36R HAVELOCK SUNNY 45 20 36 N16 30.35R KENANSVILLE SUNNY 43 19 39 NW10 30.36S KINSTON SUNNY 41 18 38 N13 30.36R NEW BERN SUNNY 43 20 39 NW10 30.36R RICHLANDS SUNNY 42 19 39 N9 30.36R ROCKY MOUNT SUNNY 41 17 38 NW7 30.37R WASHINGTON SUNNY 42 16 35 NW8 30.36R WHITEVILLE SUNNY 44 20 38 N5 30.35S $$ AMZ130-135-150-152-154-156-158-170-250-252-270-ANZ085-086-088-633-658-670-092100- MARINE OBSERVATIONS STATION/POSITION TIME TEMP WIND PRES WAVE SWELL AIR SEA DIR/SP/G HT/PER HT/PER (UTC) (F) (DEG/KT/KT) (MB) (FT/S) (FT/S) CHESAPEAKE LIGHT NOT AVBL 64 E VA BEACH 1950 41 58 310/ 19/ 23 1025.1 6/ 7 2/14 DUCK 1948 40 53 320/ 13/ 17 1026.1 2 E DUCK NOT AVBL OREGON INLET 1936 40 52 310/ 11/ 16 1026.6 13E OREGON INLT NOT AVBL HATTERAS CG 1948 41 54 340/ 15/ 19 1026.3 DIAMOND BUOY 1950 42 76 350/ 16/ 21 1026.2 5/ 9 3/ 9 CAPE LOOKOUT 2000 43 340/ 12/ 14 1026.7 BEAUFORT LAB 1948 43 52 340/ 10/ 14 1026.1 30 SE NEW RVR IN 1908 44 69 340/ 12/ 17 1027.0 30 SE NEW RVR IN 1943 69 N/A 3/ 4 27 SE WRIGHTSVLE 1908 44 70 340/ 14/ 19 1026.7 5 SE WRIGHTSVLE 1908 42 61 330/ 14/ 21 1027.0 225 S CAPE HAT 1950 60 73 350/ 16/ 21 1023.0 7/ 7 3/11 41 SE CHARLESTON 1850 49 72 360/ 16/ 21 1027.0 5/ 6 2/10 $$

USA.gov is the U.S. government's official web portal to all federal, state and local government web resources and services.